CAPE
2006 1973 1872 1831 1808 1987 2068 2148 2074 2151 2161 2153 2125 1934 2059 2119 1989 1946 1944 1869 1881 1963 1795 1358 1204 1357 794 1227 1452 1453 1393 1422 1461 1508 1609 1757 1937 2101 2158 2164 2138 2145 2232 2242 2193 2156 2136 2094 2105 2018 1978 1888 1756 1788 1885 1932 1980 2025 1898 1812 1726 1683 1559 1267 1227 1332 1285 1261 1374 1355 1170 1381 1373 1438 1541 1547 1564 1572 1550 1493 1515 1564 1516 1400 1331
2021 1939 1901 1844 1752 1779 1958 2178 2164 2107 1952 1992 1968 1895 2024 1628 1306 1390 1451 1695 1618 1370 1723 1450 926 886 676 1214 1418 1401 1334 1402 1447 1523 1601 1804 1909 2412 2291 2252 2235 2218 2170 2138 2159 2205 2196 2138 2094 2045 1942 1862 1773 1722 1858 1972 1881 1854 1864 1770 1620 1596 1448 1218 1315 1411 1333 1384 1372 1412 1514 1434 1452 1598 1653 1503 1644 1547 1410 1432 1500 1390 1446 1382 1331
2019 1826 1881 1812 1632 1371 1452 1782 1664 1421 1322 1364 1501 2029 1578 1571 1734 1937 2176 2309 1738 1123 1513 1258 1005 491 736 1125 1394 1454 1349 1366 1460 1574 1731 1880 1944 2251 2380 2384 2344 2303 2196 2227 2235 2169 2172 2205 2161 2017 1924 1846 1833 1826 1888 1808 1749 1717 1745 1706 1543 1454 1483 1406 1442 1536 1308 1324 1530 1514 1476 1529 1389 1500 1662 1462 1610 1602 1448 1412 1389 1352 1412 1368 1260
2075 1762 1740 1776 1755 1385 1172 998 962 1282 1472 1334 1692 2407 1859 1845 2292 2563 2709 1823 1564 1183 1336 944 772 526 620 748 1325 1506 1444 1369 1461 1607 1779 1904 2021 2259 2372 2500 2469 2386 2313 2278 2225 2199 2183 2163 2103 2102 1975 1926 1880 1876 1925 1868 1797 1621 1676 1533 1519 1572 1480 1510 1522 1617 1611 1684 1509 1500 1503 1610 1336 1362 1511 1397 1548 1465 1373 1327 1279 1316 1359 1236 722
1858 1690 2257 1486 1799 1817 1312 1247 1251 1966 2026 2080 2404 2405 2487 3038 2586 2342 2764 1557 1555 1302 1098 546 548 551 659 751 1186 1494 1504 1365 1381 1519 1649 1836 2062 2267 2263 2503 2506 2491 2416 2418 2351 2210 2237 2239 2228 2130 2011 2007 1934 1925 1948 1916 1724 1744 1773 1731 1666 1647 1663 1613 1600 1686 1774 1764 1555 1573 1660 1491 1277 1334 1426 1380 1312 1400 1320 1206 1216 1279 1262 858 560
1666 1707 1646 1786 1956 1770 1761 1946 2018 2206 2616 2420 2255 2062 2047 2169 2318 1721 2716 1606 1583 1668 927 614 566 570 672 804 1006 1396 1520 1426 1297 1309 1403 1644 1883 2085 2130 2272 2341 2460 2562 2536 2464 2339 2405 2376 2325 2281 2186 2144 2108 2062 1962 1891 2021 1925 1853 1831 1740 1798 1841 1772 1742 1764 1814 1722 1596 1458 1526 1456 1454 1416 1463 1380 1294 1304 1318 1109 1022 1162 1056 691 381
2058 1673 1686 1803 1993 2009 2051 2085 2375 2490 2281 2200 1937 1912 1947 2190 2709 1615 1556 1850 2100 2222 1328 179 492 622 681 748 793 1300 1546 1464 1324 1297 1367 1468 1583 1808 1923 2089 2188 2295 2478 2553 2654 2692 2559 2456 2582 2550 2455 2362 2332 2313 2230 2175 2142 2077 1987 1891 1855 1845 1872 1916 1819 1706 1690 1712 1629 1520 1545 1491 1465 1460 1455 1244 1269 1203 1290 951 976 1116 984 487 351
2356 1723 1675 2007 2020 1996 2212 2538 2596 2208 2026 2193 2039 1844 2127 2482 2821 1699 1422 1610 2326 1379 1006 723 468 636 702 701 716 1200 1532 1546 1497 1400 1403 1363 1439 1530 1712 1887 2033 2138 2569 2384 2454 2599 2522 2546 2585 2617 2623 2572 2477 2500 2397 2370 2311 2217 2008 2017 2002 1934 1996 1949 1885 1838 1704 1748 1734 1602 1540 1527 1488 1504 1403 1385 1298 1195 1173 898 715 980 744 409 317
2263 1802 1854 1996 1959 2113 2387 2392 2226 2015 2218 1823 1749 2153 2280 2814 2735 3356 2323 1810 2086 1094 735 1238 894 668 687 582 598 936 1286 1529 1571 1600 1517 1323 1354 1501 1559 1728 2019 2652 2559 2341 2341 2394 2646 2749 2668 2768 2750 2704 2590 2568 2472 2322 2287 2136 2140 2175 2120 2008 1962 2002 1940 1908 1749 1730 1728 1710 1587 1515 1469 1343 1327 1369 1349 1253 950 880 752 896 754 399 351
2253 2116 1762 1888 2105 2261 2495 2563 2559 2483 2167 1826 1732 2115 2553 2671 2703 2972 2261 2314 2010 1346 1132 1333 1735 835 550 583 644 779 798 1136 1510 2476 1616 1393 1395 1489 1544 1681 1938 2179 2337 2353 2237 2260 2299 2470 2820 2861 2793 2762 2743 2606 2534 2464 2376 2230 2158 2184 2093 2042 1912 1879 1766 1789 1824 1690 1675 1654 1554 1505 1425 1251 1203 1259 1208 1009 840 690 719 840 706 408 283
2472 2282 1976 2422 2029 2303 2657 2566 2494 2496 2318 2248 2196 3031 2860 2758 2961 2827 2712 2791 2810 2207 2093 1887 2016 856 273 543 576 601 597 864 1286 1843 1679 1519 1534 1763 1709 1777 1849 2041 2186 2226 2108 2058 2096 2188 2421 2604 2620 2773 2814 2741 2704 2571 2510 2385 2304 2048 2009 1937 1867 1805 1826 1721 1749 1760 1665 1506 1502 1425 1201 1213 1156 1098 1059 861 818 744 734 826 749 480 355
2692 2184 2081 1790 2087 2459 2555 2461 2191 2147 2339 2380 2323 2541 2783 2711 2547 2600 2138 2262 2847 2741 2589 1763 335 298 933 405 481 505 403 1318 996 1483 1579 1653 1759 2111 1906 1865 1934 2027 2209 2196 1987 1819 1850 1923 2262 2356 2506 2493 2750 2861 2823 2728 2646 2550 2428 2221 2030 1941 1850 1879 1834 1709 1637 1674 1642 1505 1548 1441 1249 1281 1238 1161 1054 976 883 812 667 829 832 666 397
2754 2398 2186 2986 2164 2454 2340 2314 2255 2096 2090 2116 2317 2932 2855 2413 2945 3519 3081 1939 1930 1986 1908 1118 50 186 549 372 336 332 1130 2035 781 914 1169 1446 1554 2139 2016 2025 2018 2031 2323 2273 1965 1888 1775 1683 1818 2134 2311 2360 2341 2743 2904 2850 2783 2728 2665 2571 2386 2134 2017 1966 1872 1734 1612 1640 1622 1426 1476 1529 1534 1506 1283 1158 1097 1056 940 871 837 833 836 694 401
2790 2644 2813 2639 2221 2176 2312 2516 2390 2124 1858 1911 2521 3729 2948 2751 2579 1996 2541 2413 2117 2000 1788 712 235 113 305 180 206 97 1218 1684 814 610 664 806 1337 1774 1883 1919 1979 2017 2260 2349 2147 2080 1982 1673 1530 1844 1934 2072 2128 2100 2451 2646 2688 2842 2765 2761 2717 2554 2316 2136 2056 1990 1836 1797 1649 1536 1599 1625 1574 1498 1416 1296 1125 1031 1014 1002 865 803 878 811 562
2872 3094 2830 2496 2253 1871 2042 2656 2354 2699 2537 2415 2975 3002 2549 2575 2470 2241 2166 2586 3081 2478 1396 1134 684 818 693 75 82 187 405 343 436 538 680 5 698 1388 1497 1481 1676 1791 2098 2235 2197 2191 2203 1983 1490 1603 1615 1667 1798 1824 1903 2372 2535 2782 2679 2692 2801 2832 2653 2417 2305 2158 2088 1945 1937 1984 1941 1695 1610 1659 1606 1486 1368 1250 1039 948 930 834 845 879 726
3096 3158 2665 2306 2184 1794 1904 2613 2501 2474 2371 2687 2670 2773 2233 1858 2097 2690 2404 1653 1577 1757 2668 1476 1282 605 393 138 18 33 149 58 442 514 556 151 63 831 976 1034 1196 1346 1814 2030 2051 2162 2228 2142 1730 1580 1589 1515 1627 1650 1603 1745 2350 3054 3083 2862 2699 2663 2722 2647 2451 2330 2175 2123 2032 2126 1898 1770 1750 1699 1667 1647 1567 1328 1141 1039 1010 921 895 951 846
3205 3089 2759 2123 1828 1650 1828 2396 2644 2450 2489 2690 2656 2592 2123 1954 1815 2328 2750 2098 1538 1560 1976 2288 1574 1271 479 278 165 190 121 20 121 464 445 89 23 11 338 299 312 675 1200 1584 1807 2000 2027 2061 1990 1822 1736 1706 1807 1794 1659 1628 1979 2633 2857 3122 3106 2801 2674 2617 2605 2570 2473 2231 2176 2209 2218 2108 1852 1892 1757 1762 1657 1490 1364 1294 1040 934 906 976 1048
3220 3032 2862 2482 1970 2033 2178 2067 2640 2658 2542 2532 2509 2284 2070 1914 1734 2019 2312 2690 1778 1461 1642 1842 2265 2747 1519 718 577 114 245 630 223 230 2 1200 272 1 77 78 2 84 564 866 1202 1547 1740 1670 1726 1880 1864 1840 1917 1924 1716 1497 1732 1679 1936 2243 3107 3092 2807 2606 2552 2475 2410 2473 2436 2363 2315 2357 2215 2007 1944 1785 1772 1667 1286 1352 1387 1153 1056 1043 1084
3186 2857 2787 2779 2578 2440 2588 2455 2656 2863 2907 2433 2448 2269 2156 1941 1679 2093 2089 2797 1328 1094 1201 1216 1267 1765 2067 1227 1332 1327 685 450 79 301 18 1 502 0 71 77 18 34 333 553 646 854 1199 1173 1110 1329 1591 1663 1729 1712 1672 1635 1912 1928 2205 2600 2789 3090 2941 2524 2223 2313 2185 2139 2290 2388 2425 2401 2404 2256 2176 2092 1762 1761 1637 1201 1321 1352 1210 1138 1032
2867 2594 2496 2702 2938 2728 2607 2869 2879 2884 3033 2602 2529 2327 2314 2202 2092 2086 2323 2564 1945 1224 1282 1505 1072 1144 3367 1937 1408 1959 788 310 117 64 38 82 17 11 125 48 104 137 350 498 582 594 508 699 714 910 1027 1044 1092 1144 1324 1570 1772 1972 2409 2819 3006 2957 2785 2563 2257 2244 2233 1933 1895 2093 2381 2509 2484 2450 2289 2217 2161 1940 1785 1593 1329 1366 1324 1266 1078
2422 2300 2205 2477 2992 2838 2474 2705 3234 2822 3648 2725 2557 2375 2237 2288 2292 2377 2285 2340 2515 1818 987 1216 1531 1875 1633 1114 1269 1148 725 542 203 651 598 195 39 354 175 45 93 109 203 541 583 600 487 551 579 797 858 841 995 1009 921 1123 1585 1756 2262 2554 3018 3157 2763 2456 2242 2178 2242 2239 1786 1817 1991 2224 2457 2504 2468 2421 2384 2285 2110 1912 1655 1446 1451 1464 1163
2254 2190 2157 2325 2647 2737 2380 2277 3087 2850 3378 2756 2510 2323 1948 1994 2238 2467 2273 2149 2558 2410 1683 1846 2090 2035 1951 1150 1051 940 141 140 298 12 182 87 120 142 142 390 149 196 323 493 566 591 500 499 690 1118 1002 974 990 1107 1053 1035 1106 1595 1950 2486 2774 2950 2762 2478 2209 2376 2286 2437 2175 2109 2086 2015 2114 2310 2444 2436 2456 2595 2545 2342 2052 1763 1495 1475 1434
2301 2009 2071 2277 2415 2607 2560 2265 2684 2856 3172 2750 2286 2041 1665 1703 2225 2470 2368 2480 2745 2423 3358 3162 2755 2926 1996 1508 933 531 183 481 358 425 249 68 0 226 555 675 20 44 12 70 215 117 121 340 664 831 1082 1051 1051 1101 1182 1171 1232 1468 1887 2039 2250 2514 2642 2542 2391 2397 2373 1891 2183 2480 2567 2425 2168 2019 2242 2269 2566 2599 2571 2728 2645 2370 1981 1734 1545
1970 2007 1842 2224 2187 2412 2592 2445 2539 2648 2676 2715 2341 2015 1802 1824 2330 2469 2431 2786 2890 2833 2923 3199 2730 2225 2647 2742 1762 1306 1651 1272 710 153 642 127 158 276 325 348 451 110 468 240 416 127 66 217 385 680 950 1076 1083 1132 1252 1275 1224 1555 2062 1969 2003 2179 2513 2699 2650 2525 2148 1897 1702 1860 2253 2524 2467 2335 2180 2067 2288 2416 2712 2787 2751 2743 2512 2301 1967
1794 1862 1622 2169 2143 2203 2343 2425 2320 2430 2496 2506 2252 2006 1949 2135 2391 2602 2572 2519 2597 2710 2740 2800 2745 2471 2458 2441 2174 1957 1928 1846 1607 696 496 348 16 221 47 90 198 196 923 792 57 66 410 174 160 203 670 982 1048 1087 1164 1250 1225 1174 2171 1839 1693 1630 2008 2361 2524 2372 2169 1908 1665 1596 1521 1450 1457 1464 1417 1327 1251 1367 1740 2216 2599 2774 2828 2793 2599
1392 1907 1688 2035 2116 2201 2202 2329 2292 2264 2307 2352 2069 1912 1831 2217 2542 2647 2734 2656 2509 2681 2641 2581 2772 2750 2615 2189 2046 2116 1967 1735 1777 1545 1107 390 90 19 39 198 1174 1093 1014 1153 952 443 80 87 111 258 431 550 850 1030 1082 1113 1102 1170 1765 2031 1666 1510 1438 1496 1735 1851 1857 1783 1651 1441 1300 1303 1538 1424 1342 1402 1426 1471 1535 1616 1749 1899 2085 2439 2752
1226 1696 1652 1800 1998 2108 2097 2142 2214 2227 2223 2290 1913 2009 2040 2214 2543 2665 2720 2844 2764 2921 2818 2692 2818 2740 2586 2308 2061 2034 1841 1956 1992 1923 1494 1149 680 400 41 312 615 695 1115 1588 1804 1134 734 97 172 154 439 444 456 584 946 1001 1003 1248 1623 1874 1820 1637 1571 1546 1487 1478 1524 1573 1535 1346 1369 1480 1566 1636 1695 1716 1772 1823 1915 2030 2101 2136 2134 2097 2054
1256 1345 1692 1543 1914 2002 2046 1960 2022 2243 2190 2221 1913 1850 2231 2273 2423 2538 2565 2785 2924 3075 2890 2784 2727 2687 2717 2659 2570 2422 2375 2315 2128 2412 1555 976 583 662 441 684 632 528 107 995 1203 1537 1580 1124 1206 948 538 464 472 451 832 1225 1066 1342 2009 1711 1481 1461 1438 1379 1276 1317 1318 1358 1492 1596 1663 1720 1762 1816 1871 1948 1995 2076 2156 2189 2174 2173 2137 2138 2125
1390 1353 1433 1634 1697 1875 1920 1906 1885 2345 2223 2233 1992 1780 2039 2199 2361 2491 2422 2543 2762 2934 2878 2748 2697 2865 2868 2706 2624 2475 2482 2555 2542 2278 2000 954 885 1250 1114 951 845 773 323 911 1263 1695 1609 1388 1089 1052 1372 1178 601 965 1386 1262 1154 1341 1199 1242 1496 1579 1528 1341 1385 1461 1594 1774 1860 1869 1899 1941 2014 2095 2188 2204 2213 2239 2268 2309 2368 2391 2427 2446 2495
1367 1449 1414 1441 1591 2168 1782 1838 1772 2047 2346 2268 2108 2070 2046 2010 1994 2126 2261 2488 2587 2564 2528 2388 2454 2588 2654 2563 2589 2681 2623 2684 2492 2371 2508 1647 1687 1508 1246 1234 1192 1043 889 836 813 1369 1646 1137 1444 1496 1630 1673 2130 2128 1645 1321 1017 1388 1383 1416 1509 1560 1611 1774 1867 1939 1993 2022 2014 2046 2096 2165 2246 2337 2432 2465 2490 2553 2634 2642 2611 2623 2624 2636 2623
1270 1412 1453 1418 1329 1521 1770 1815 1774 1751 2296 2234 2140 2120 2205 2096 2166 2055 2070 2223 2299 2359 2283 2190 2093 1914 2120 2152 2127 2185 2392 2609 2590 2560 2595 1939 1720 1529 1618 1621 1350 1206 1175 1386 1004 284 1188 1973 1849 1754 1786 1946 2457 2598 2544 2399 2237 2091 2031 1992 1975 1971 1966 1954 1956 1922 1954 2030 2123 2194 2274 2387 2494 2608 2713 2743 2776 2825 2841 2805 2813 2800 2729 2541 2379
1195 1365 1414 1374 1317 1320 1642 1733 1751 1689 2037 2229 2158 2123 2265 2169 2156 2239 2225 2242 2190 2215 2370 2464 2125 1953 1947 2038 2070 2120 2051 2245 2405 2409 2696 2296 2265 2010 1926 1793 1724 1561 1683 1586 1238 862 1186 1512 1354 1403 1744 2283 2620 2747 2689 2574 2409 2289 2234 2237 2215 2252 2285 2293 2320 2332 2339 2377 2420 2525 2679 2785 2858 2921 2923 2932 2971 2970 2927 2914 2759 2477 2391 2336 2264
820 796 959 1106 1169 1306 1600 1647 1679 1726 1869 2199 2218 2156 2232 2301 2210 2254 2305 2350 2294 2185 2220 2349 2322 1953 1827 1754 1880 2043 2231 2506 2407 2412 2796 2701 2346 2284 2298 2196 2273 2128 2006 1890 1767 1676 1650 1738 1918 2014 2288 2528 2714 2783 2738 2617 2503 2389 2355 2461 2672 2773 2866 2889 2915 3012 3126 3177 3219 3231 3212 3180 3152 3113 3081 3093 3095 3012 2690 2517 2323 2272 2249 2178 2062
562 759 526 470 532 860 1592 1637 1648 1738 1823 2073 2270 2227 2180 2300 2386 2332 2300 2372 2400 2284 2246 2309 2271 2244 2140 1957 1856 1880 1990 2612 2551 2331 2390 2663 2492 2383 2381 2316 2248 2145 2073 1986 1997 2132 2145 2209 2314 2336 2486 2652 2808 2862 2837 2759 2717 2697 2753 2916 3054 3080 3038 3041 3173 3413 3534 3566 3571 3510 3401 3354 3268 3220 3200 3091 2742 2359 2290 2224 2208 2177 2069 1991 2037
300 602 707 573 581 625 1152 1570 1607 1694 1846 1956 2176 2318 2242 2219 2304 2364 2354 2289 2356 2373 2322 2345 2289 2126 2250 2236 2144 2060 1739 1909 2052 2214 2240 2383 2477 2453 2445 2418 2400 2356 2306 2293 2343 2354 2385 2452 2482 2585 2698 2857 2908 2938 2907 2890 2844 2808 2947 3140 3239 3282 3329 3409 3533 3653 3692 3707 3630 3563 3474 3378 3294 3143 2744 2562 2328 2216 2180 2163 2142 2060 1998 2078 2194
200 247 333 697 696 696 706 1265 1537 1636 1755 1869 2018 2256 2328 2283 2241 2258 2289 2249 2274 2345 2347 2296 2281 2125 2119 2320 2480 2522 2235 2011 1876 1940 2091 2296 2382 2403 2376 2426 2508 2525 2616 2626 2534 2573 2619 2619 2677 2713 2822 2907 3004 3010 2913 2795 2818 3035 3222 3310 3397 3466 3483 3519 3615 3698 3750 3727 3639 3476 3416 3294 2864 2622 2420 2295 2218 2166 2121 2094 2096 2100 2158 2193 2201
283 206 130 327 759 805 738 807 1250 1518 1657 1745 1818 2033 2252 2290 2257 2210 2186 2180 2180 2241 2255 2194 2424 2146 2062 2114 2272 2442 2519 2238 2081 2024 2078 2148 2242 2295 2334 2385 2429 2514 2545 2601 2680 2672 2718 2755 2798 2825 2973 3128 3034 2760 2750 2847 2995 3111 3258 3473 3560 3494 3442 3392 3458 3571 3594 3578 3443 3376 3213 2765 2472 2317 2219 2168 2130 2098 2071 2072 2098 2170 2137 1886 1338
282 302 183 24 150 767 900 807 880 1206 1489 1658 1732 1800 1990 2181 2223 2200 2167 2148 2124 2134 2216 2265 2246 2268 2163 2095 2080 2150 2274 2374 2271 2173 2216 2267 2298 2297 2245 2168 2104 2291 2512 2615 2708 2794 2862 2881 2912 3058 2820 2299 2442 2502 2633 2819 3051 3290 3500 3603 3474 3305 3182 3338 3595 3565 3345 3328 3222 3062 2741 2534 2292 2166 2075 2059 2059 2033 2044 2059 2093 1898 988 653 698
111 244 314 156 25 182 800 952 880 918 1107 1403 1657 1742 1760 1874 2092 2154 2146 2128 2108 2038 2025 2184 2320 2360 2359 2288 2231 2209 2212 2200 2214 2177 2117 2165 2242 2316 2369 2317 2097 2023 2165 2370 2546 2735 2831 2875 2786 2530 2508 2593 2700 2820 2933 3152 3406 3516 3530 3298 2951 2999 3650 3557 3514 3149 2957 2995 2785 2648 2608 2343 2188 2068 2008 1983 1974 1957 1962 2006 1648 726 668 694 673
0 26 188 300 126 44 325 857 1008 984 968 1011 1222 1498 1636 1659 1782 2008 2065 2073 2060 2015 1952 1923 2030 2194 2290 2368 2394 2404 2373 2326 2269 2150 2009 2014 2074 2201 2281 2308 2200 2075 2056 2131 2265 2429 2515 2574 2638 2690 2722 2810 2931 3082 3233 3333 3302 3036 2877 2927 3115 3234 3366 3313 3048 2606 2766 2739 2683 2743 2465 2150 2015 1960 1937 1904 1846 1869 1894 1372 752 713 743 686 628
0 0 5 137 278 150 73 459 969 1150 1142 1057 1052 1176 1368 1514 1581 1782 1955 2014 2006 1996 1987 1956 1892 1926 2107 2316 2382 2395 2419 2798 2419 2398 2296 2037 1972 2086 2168 2142 2083 2059 2127 2238 2371 2456 2514 2567 2662 2748 2842 2943 3006 3017 2956 2856 2840 2923 3044 3143 3235 3366 3254 3098 2564 2254 2578 2748 2797 2761 2331 2107 1944 1904 1899 1832 1733 1770 1281 346 678 796 759 640 513
0 0 0 19 162 276 172 151 525 1045 1320 1348 1334 1203 1289 1417 1479 1630 1843 1955 1992 1980 1972 1990 2030 1996 1953 2003 2192 3048 3096 3073 2628 2522 2506 2396 2221 1940 1933 2004 2099 2177 2268 2386 2478 2498 2532 2592 2646 2698 2765 2792 2769 2792 2881 2960 3035 3058 3096 3196 3277 3304 3191 2656 2169 2401 2710 2876 2886 2809 2290 2078 1949 1943 1881 1787 1596 1347 545 58 679 764 606 110 0
0 4 11 16 74 233 326 234 201 523 1108 1479 1535 1413 1363 1410 1442 1522 1696 1881 1964 2001 1966 1936 1939 2024 2088 2085 2037 2481 3501 3803 3235 2664 2502 2473 2400 2185 2029 2168 2317 2096 2218 2356 2402 2408 2491 2602 2657 2694 2770 2814 2878 2957 3070 3128 3118 3108 3179 3233 3246 3073 2649 2424 2439 2718 3073 2882 2844 2607 2188 1967 1946 1941 1904 1564 1365 876 0 529 642 511 0 0 0
110 56 45 34 57 168 336 389 322 327 541 1023 1525 1638 1546 1501 1501 1468 1516 1695 1879 1976 2011 1983 1930 1896 1937 2044 2131 2135 2128 2433 2680 2747 2644 2451 2312 2202 2108 2110 2127 2385 2278 2198 2255 2362 2504 2607 2677 2786 2883 2970 2966 2971 3045 3044 3087 3125 3128 3029 2828 2693 2658 2639 2692 3086 3144 2886 2694 2375 2196 1776 1632 1929 1803 874 810 687 466 237 0 0 0 0 0
233 189 115 76 74 132 298 449 513 503 481 341 1000 1543 1711 1666 1601 1522 1438 1463 1640 1826 1953 2013 2021 1973 1904 1876 1923 2037 2116 2949 3306 2760 2554 2472 2392 2294 2197 2111 2028 2104 2321 2436 2324 2308 2320 2452 2637 2748 2838 2937 3008 3003 2978 2900 2847 2272 2332 2310 2356 2516 2584 2707 3116 3309 3129 2795 2376 2373 2114 1709 1673 1667 1295 945 883 788 548 0 0 0 0 0 0
359 305 215 148 102 109 228 381 609 732 734 699 715 994 1457 1714 1733 1686 1577 1469 1468 1586 1730 1880 1994 2050 2036 1970 1900 1883 1937 2047 2176 2351 2434 2451 2407 2373 2325 2210 2016 1865 1798 1912 2437 2610 2530 2626 2759 2787 2808 2965 2970 2664 2305 1997 1887 1778 1734 1994 2107 2251 2577 3238 3287 3180 2973 2641 2226 2099 1978 1796 1755 1549 1078 881 803 710 470 0 0 0 0 0 0
599 456 363 243 175 158 195 341 504 784 992 1031 953 917 1061 1415 1670 1745 1674 1549 1499 1543 1603 1661 1760 1876 1989 2039 2014 1963 1940 1961 1988 2028 2094 2156 2188 2167 2078 1884 1731 1621 1545 1548 1617 1979 2745 3110 3131 3013 2866 2571 2318 2156 2095 2097 2105 2289 2517 2652 2765 2996 3198 3150 3064 2987 2884 2462 2050 1892 1844 1852 1590 1353 887 828 776 650 352 0 0 0 0 0 0
824 708 586 504 361 262 201 346 481 676 984 1230 1304 1228 1164 1217 1433 1604 1648 1615 1589 1606 1647 1701 1732 1748 1790 1892 1997 2033 2017 1994 2004 2061 2103 2096 2083 2053 1950 1787 1652 1555 1484 1440 1443 1534 1689 1978 2275 2360 2303 2160 2064 2299 2626 2715 2982 3126 3165 3192 3116 3094 3117 3112 3099 3055 2888 2362 2050 1989 1891 1819 1451 1164 879 885 777 562 180 0 0 0 0 0 0
978 875 801 710 684 504 368 426 577 697 853 1152 1475 1537 1475 1413 1392 1410 1508 1598 1663 1709 1684 1700 1772 1843 1881 1872 1872 1892 1934 1952 1960 2002 2090 2171 2174 2165 2037 1787 1665 1581 1526 1471 1452 1498 1573 1705 1828 1926 2024 2130 2387 2859 3135 3541 3715 3725 3709 3556 3469 3354 3320 3316 3240 2975 2576 2207 2128 1953 1849 1888 1461 1090 982 965 816 404 0 0 0 0 0 0 0
1290 1058 912 801 866 820 688 541 700 882 948 1154 1443 1670 1706 1677 1598 1550 1561 1599 1671 1774 1806 1768 1711 1693 1746 2515 2476 1838 1810 1814 1845 1912 1982 2036 1971 1854 1750 1799 1834 1857 1884 1908 2012 2051 2020 1987 2019 2132 2231 2743 3201 3543 3893 3962 3746 3538 3379 3372 3466 3428 3493 3411 3038 2700 2422 2202 1907 1785 1849 1810 1533 1167 1082 1062 714 64 0 0 0 0 0 0 0
1459 1202 1014 848 984 990 953 861 826 1044 1143 1274 1448 1718 1824 1810 1787 1755 1721 1752 1788 1845 1897 1905 1867 1818 1744 2098 2773 2509 1897 1788 1763 1757 1772 1770 1732 1632 1542 1671 1851 2000 2113 2271 2587 2919 3156 3245 3368 3473 3522 3658 3892 3999 3728 3493 3243 3174 3246 3318 3467 3542 3378 2998 2686 2582 2329 2034 1724 1929 2003 1895 1648 1325 1203 1071 517 0 0 0 0 0 0 0 0
Wind_Speed
15 16 16 16 16 15 14 14 14 16 15 16 16 16 17 17 18 20 21 23 23 20 18 17 16 17 15 16 16 16 16 16 15 16 17 18 18 18 18 18 17 17 17 17 17 18 20 20 21 21 22 21 21 21 21 21 21 21 21 22 21 21 21 21 21 22 21 21 21 21 20 20 21 20 20 20 18 18 16 16 15 15 17 18 19
14 15 14 15 15 14 13 14 14 15 15 17 17 16 17 18 20 22 23 23 22 21 18 19 19 18 17 17 17 16 16 15 15 16 17 17 18 19 19 19 18 17 17 18 19 19 20 21 21 22 22 21 21 21 21 21 21 22 22 22 21 21 21 20 22 22 22 21 20 20 19 19 20 19 19 19 17 18 17 16 17 18 19 20 21
13 14 14 13 14 13 14 14 15 16 16 18 18 18 18 19 21 22 22 22 21 19 18 20 20 21 21 20 19 16 15 15 15 16 17 18 19 20 20 20 20 19 19 19 20 20 21 22 22 22 22 22 21 21 21 21 22 22 23 22 21 21 20 21 22 22 22 20 20 19 18 18 18 18 19 18 18 18 18 19 19 21 21 22 23
11 12 13 13 13 13 14 14 16 16 16 18 18 18 18 19 20 20 20 20 19 19 19 19 22 22 22 23 21 19 17 16 16 17 18 19 21 21 21 21 22 21 21 21 21 22 22 23 22 22 22 22 22 22 22 22 22 22 22 21 21 21 21 23 22 23 21 20 20 19 18 19 19 18 18 19 19 20 20 21 21 23 24 25 25
10 11 12 12 12 13 13 14 15 15 15 16 16 17 18 20 21 19 17 17 15 19 19 20 21 22 22 22 21 20 19 18 18 18 20 21 21 22 21 21 21 22 23 23 23 23 23 23 23 23 22 23 23 23 22 22 22 22 22 22 22 22 23 23 23 22 21 20 20 18 19 20 19 18 19 20 21 21 22 22 24 25 26 26 26
9 11 11 11 11 11 12 14 14 13 14 13 13 15 17 17 18 15 15 14 15 16 18 19 21 19 21 20 20 20 20 20 19 20 20 21 21 21 21 21 21 21 21 23 24 24 24 23 23 23 23 24 23 23 23 23 23 23 22 23 23 23 23 23 23 22 21 21 20 19 20 19 19 20 22 22 23 23 24 25 27 28 29 28 29
8 9 9 9 8 8 10 12 12 12 11 13 13 15 15 17 17 14 16 15 16 16 14 20 17 19 19 18 19 19 20 20 19 19 20 19 19 20 20 20 20 20 21 21 23 24 24 24 24 24 24 24 24 24 23 23 24 24 24 25 24 24 24 23 22 22 22 21 20 19 20 20 21 23 24 24 23 25 27 28 29 29 29 29 29
8 8 8 7 6 7 10 11 11 11 11 12 13 13 14 15 16 14 15 17 16 15 13 13 15 17 17 17 17 17 19 18 18 18 18 17 18 19 20 20 20 20 20 20 20 21 25 25 24 25 25 25 25 25 25 25 25 26 26 25 25 24 24 23 22 22 22 21 21 21 22 23 24 25 25 25 26 28 29 29 29 30 30 29 29
7 7 6 6 7 7 10 10 10 10 10 10 11 13 12 12 14 14 14 16 16 16 16 14 12 15 17 17 16 16 17 17 16 17 15 16 17 18 19 19 18 21 20 19 20 20 21 25 25 26 26 26 25 26 27 27 27 27 27 27 26 25 24 23 23 23 22 22 22 23 24 26 26 26 26 28 29 30 30 29 30 30 30 29 30
6 6 6 7 8 9 9 9 9 9 9 10 11 12 11 11 12 14 12 13 15 16 17 16 14 16 17 16 16 15 17 16 16 14 14 15 16 17 19 17 17 19 19 18 19 19 18 22 26 27 27 26 25 26 27 28 28 29 28 28 27 26 26 25 25 25 25 25 25 26 26 27 28 29 29 30 30 30 30 30 30 31 31 30 31
6 5 5 7 8 9 9 10 9 9 9 10 10 10 10 10 10 13 14 13 14 16 18 16 15 15 14 14 15 14 14 15 16 15 15 16 16 17 16 16 16 17 18 18 18 17 18 17 18 18 21 27 27 28 29 30 30 30 30 29 28 28 27 27 26 26 27 28 28 29 29 30 30 31 31 31 30 31 30 31 31 32 33 33 33
5 5 5 7 8 9 9 9 9 9 10 10 10 9 8 8 10 11 12 13 13 14 14 13 11 11 13 13 14 12 11 13 15 15 14 15 16 15 16 15 15 16 17 17 17 17 17 17 18 18 19 24 29 30 31 31 31 30 30 30 30 29 29 28 28 28 29 30 31 31 31 32 32 32 32 32 32 32 31 31 32 33 34 34 34
4 6 7 7 8 9 9 10 10 10 11 12 11 10 10 10 10 10 10 10 11 12 11 10 nan 9 12 12 12 13 13 13 12 12 15 15 16 15 15 14 16 16 17 16 17 18 17 17 17 18 20 21 24 29 32 32 31 30 31 31 31 31 30 31 31 31 31 32 32 32 32 32 33 32 32 31 31 32 32 32 32 33 34 34 34
5 7 9 8 7 8 9 10 10 11 12 12 11 10 10 10 9 10 10 9 10 10 10 8 8 9 9 11 12 nan 13 12 13 12 13 15 16 16 14 15 16 16 15 16 18 19 17 17 17 20 22 22 23 22 24 26 28 31 32 32 33 33 33 33 33 32 33 33 34 33 32 31 32 33 32 32 32 32 33 33 33 34 34 34 33
7 9 9 9 8 8 10 11 10 10 10 12 11 10 10 10 10 9 9 9 9 9 8 7 8 7 8 nan nan 11 13 12 12 13 12 nan 15 16 15 16 17 16 15 15 19 19 17 17 20 21 22 23 23 23 24 26 26 32 31 32 33 34 34 34 33 34 34 34 33 32 31 31 32 32 33 32 32 33 33 33 34 34 34 34 33
8 9 10 10 9 9 10 10 10 10 10 10 11 10 10 11 10 9 8 8 8 8 8 7 6 5 7 9 nan nan 11 nan 13 13 13 9 nan 16 17 17 18 16 14 17 20 20 19 19 22 22 23 23 23 23 24 24 29 33 33 32 32 31 32 33 34 35 34 34 33 30 31 31 31 33 33 32 32 33 33 33 34 34 34 34 34
8 9 9 9 9 9 9 10 9 8 9 10 11 12 11 11 10 8 7 6 7 8 8 7 7 7 7 5 6 8 12 nan 9 13 11 nan nan nan 16 17 18 17 15 19 21 22 21 20 22 22 23 23 24 24 24 25 25 25 26 30 30 29 31 34 35 34 34 33 33 32 31 32 32 33 33 33 33 33 34 34 34 34 34 34 34
8 9 9 8 9 9 8 8 8 8 9 10 10 9 10 10 11 8 8 8 6 6 7 8 7 7 8 6 8 8 10 10 8 11 nan 13 16 nan nan nan nan nan 16 19 23 23 21 21 21 22 23 23 24 24 24 24 23 23 22 23 29 29 31 33 34 34 34 33 33 33 32 31 31 33 33 34 34 34 34 34 34 34 34 35 35
7 8 9 9 8 8 6 7 8 9 9 8 9 11 10 10 9 8 10 7 5 6 7 8 6 6 5 6 8 7 9 7 nan 8 nan nan 15 nan nan nan nan nan 18 20 23 21 21 20 21 22 23 23 23 24 23 23 24 25 27 27 28 29 30 32 33 34 35 34 33 32 32 31 31 32 34 34 35 34 34 34 34 35 36 36 36
5 7 7 7 7 7 5 5 7 9 8 9 10 10 10 9 9 9 8 9 8 7 8 6 5 7 6 5 6 7 9 10 9 nan nan nan nan nan 13 nan 16 20 19 20 21 21 20 20 20 21 22 23 22 22 22 22 22 22 22 27 27 29 30 31 33 33 34 34 32 32 31 32 32 32 32 34 35 35 35 35 36 37 37 37 37
5 5 5 5 5 5 4 4 6 7 8 9 9 9 9 9 9 9 9 9 8 7 5 7 5 7 6 6 7 6 8 9 9 9 10 11 nan 14 14 nan nan 19 20 21 21 19 19 21 21 21 22 22 22 21 21 21 20 20 21 25 28 30 31 32 33 33 33 33 33 33 32 32 33 33 33 34 35 36 37 37 37 38 39 39 39
5 5 4 4 4 4 3 4 5 7 8 9 9 9 9 9 9 9 9 9 9 7 7 7 8 8 8 7 7 8 9 10 10 nan 11 nan 12 15 16 15 17 21 19 22 21 20 20 20 21 21 21 22 22 21 20 19 19 18 20 26 28 31 31 31 32 32 33 33 34 34 33 33 33 33 34 35 36 36 37 38 38 39 40 40 41
5 5 4 3 3 3 3 4 4 6 7 8 10 11 11 10 10 9 9 9 10 8 7 7 8 8 9 9 8 8 9 10 11 11 11 nan nan 16 17 17 nan nan nan nan 22 22 21 20 20 21 21 21 21 20 19 19 18 19 24 26 28 29 30 31 31 30 32 34 34 33 32 33 34 34 35 35 36 36 37 38 40 41 41 41 41
5 4 5 3 2 3 4 3 4 6 8 9 11 12 12 11 11 11 10 10 8 8 8 9 9 8 10 10 9 7 8 10 12 9 9 13 12 15 18 20 18 17 19 19 20 22 nan 22 21 20 20 20 20 19 19 18 17 22 21 25 27 27 28 29 29 30 32 33 32 32 32 33 34 34 34 34 34 35 37 39 40 41 41 42 43
4 4 4 3 2 3 4 4 5 6 8 8 11 12 12 12 12 12 11 10 9 9 9 10 9 10 12 10 8 7 9 10 10 11 10 11 nan 14 nan nan 18 19 18 15 nan nan 21 22 20 20 19 19 19 18 17 16 16 20 23 21 25 25 27 29 29 30 31 32 32 32 32 33 33 32 33 33 33 34 36 38 39 40 42 44 45
3 3 3 3 3 3 4 5 6 8 9 9 11 12 12 12 13 13 12 11 8 9 10 9 9 11 9 10 9 8 9 9 10 10 10 10 nan nan nan 16 16 18 19 16 16 16 nan nan 19 18 17 17 18 16 16 16 17 22 25 24 24 27 29 30 31 31 30 30 31 31 32 31 30 32 33 34 34 36 37 37 38 41 44 45 45
3 4 4 4 3 4 4 5 7 9 10 11 10 11 13 13 12 13 12 10 9 9 10 9 9 9 8 10 10 9 10 8 8 12 11 12 12 12 nan 15 16 15 16 16 16 15 18 nan 16 17 17 17 16 15 15 15 18 23 25 25 25 28 29 30 30 30 29 29 29 30 31 31 32 32 33 33 34 35 37 38 40 41 42 44 45
4 5 5 4 4 4 4 5 6 8 10 11 12 11 12 12 12 11 12 9 9 9 10 8 10 10 9 9 8 10 9 8 9 12 12 12 11 10 10 11 11 17 15 15 14 14 13 13 14 13 14 14 14 13 13 14 15 22 24 23 23 23 26 27 28 28 28 27 28 29 30 31 31 32 33 33 35 36 37 39 40 41 42 44 44
4 6 5 5 4 4 4 5 6 7 9 11 12 11 11 10 9 10 11 10 9 11 10 9 10 10 9 9 10 10 10 7 8 10 9 9 9 10 10 9 9 11 13 13 14 12 12 10 11 12 9 9 10 9 9 9 13 16 17 20 21 22 24 25 25 25 25 26 27 28 29 30 31 32 33 35 36 37 37 39 40 41 42 42 43
5 5 5 4 5 4 4 5 5 6 8 9 11 11 10 11 11 10 10 9 10 11 10 10 11 9 10 10 10 10 10 7 7 8 8 9 7 8 10 10 7 8 9 9 13 11 12 11 9 9 11 11 8 8 5 7 13 16 16 19 20 22 25 22 20 21 22 23 24 26 28 30 31 32 33 34 35 36 37 38 38 39 39 39 40
6 7 6 5 4 4 4 4 4 5 6 8 9 10 10 11 12 12 11 10 10 11 12 10 11 9 9 9 9 11 10 8 7 5 7 8 8 8 9 7 8 6 5 5 8 11 7 9 9 8 8 10 9 7 6 5 9 12 14 17 17 18 20 15 16 18 20 21 23 25 27 29 31 32 33 33 34 34 35 34 35 36 36 37 37
7 7 7 7 5 2 2 3 3 4 6 7 8 9 10 11 11 12 12 10 11 12 11 10 10 9 8 9 8 9 10 8 8 6 5 7 7 7 6 6 8 7 4 4 6 13 8 6 8 11 10 7 7 6 5 5 7 11 13 15 14 12 13 12 11 16 19 21 22 24 26 28 29 31 31 31 31 29 29 31 32 33 33 33 34
8 7 7 7 6 3 1 1 2 3 4 6 7 8 9 10 11 11 11 10 11 12 11 12 10 9 9 8 8 8 7 7 8 5 5 5 6 8 8 6 6 6 4 4 6 11 10 5 6 6 6 5 5 2 3 5 8 10 11 12 9 8 12 12 8 11 16 18 21 23 23 25 27 27 27 25 25 26 27 28 28 28 29 30 30
8 6 6 6 6 4 2 1 2 2 3 4 5 6 8 9 10 10 10 10 10 10 9 11 11 10 8 8 8 7 5 5 4 4 3 3 3 5 8 6 6 6 5 2 5 5 10 7 6 5 5 1 2 1 4 5 9 9 9 8 6 8 11 11 7 6 12 16 18 19 20 22 22 20 19 21 22 23 24 24 25 26 26 27 27
7 7 6 6 5 5 3 2 3 2 2 2 3 4 6 7 8 9 9 9 9 9 10 11 11 9 8 7 8 6 3 4 4 4 2 1 1 2 5 5 6 7 5 4 3 4 6 8 4 5 4 3 1 4 2 4 6 7 8 6 4 5 10 9 5 4 8 11 13 14 16 16 14 16 18 19 20 20 21 22 22 23 24 23 22
6 6 6 6 6 5 4 3 4 3 2 1 1 3 4 5 7 7 7 7 8 8 9 9 9 9 9 8 8 6 4 3 3 2 2 1 0 1 1 2 3 6 5 4 3 3 3 4 5 2 3 2 2 1 1 2 5 6 5 4 2 5 9 7 4 3 4 5 10 13 12 13 14 13 13 13 14 17 17 17 16 17 16 17 18
6 7 7 7 6 6 5 4 4 3 3 2 1 1 2 3 5 5 5 6 6 7 7 7 8 8 8 9 9 6 4 4 3 2 2 0 1 1 0 0 0 2 4 3 4 2 3 3 4 4 4 4 3 2 1 2 3 3 3 2 3 6 10 7 3 1 4 6 9 9 11 11 10 10 10 11 12 13 14 14 14 13 13 13 15
6 6 6 nan 7 6 5 5 4 3 3 3 2 1 2 1 2 3 4 5 5 5 6 6 6 6 7 8 8 7 6 6 5 3 3 2 1 1 2 2 1 2 1 2 3 2 2 2 3 6 7 4 6 3 2 2 2 5 5 1 3 6 9 5 1 3 7 9 10 11 14 14 13 11 11 11 12 13 14 13 11 11 12 12 14
5 6 5 6 nan 8 6 6 5 5 4 4 3 2 1 1 1 1 2 3 4 3 3 4 4 5 6 6 7 7 8 7 6 5 4 3 3 2 1 1 3 5 3 2 2 2 3 3 5 4 4 5 5 4 5 6 4 1 2 2 1 6 9 9 3 4 8 9 11 12 15 15 15 17 14 13 14 15 13 12 12 12 14 15 17
nan nan 5 5 7 nan 7 6 6 6 5 4 4 4 3 3 3 2 2 1 2 2 2 2 2 3 5 5 6 7 8 8 8 6 6 5 4 3 2 3 4 5 4 4 4 4 4 5 5 5 6 6 7 5 7 9 7 5 3 5 3 2 7 7 8 7 10 14 12 13 19 18 18 19 17 16 15 14 13 15 15 17 17 19 21
nan nan nan 6 7 7 nan 7 6 6 5 5 5 5 4 4 4 4 4 3 2 1 1 1 0 1 2 3 4 6 8 10 12 10 8 8 7 5 3 4 4 5 6 6 5 5 5 7 7 8 7 7 5 6 7 7 5 2 3 6 5 6 8 8 6 8 11 14 15 17 19 22 20 21 22 20 19 20 21 20 20 19 19 21 21
nan nan nan nan 7 7 7 7 6 6 5 6 5 7 6 6 6 5 6 5 4 3 2 2 2 2 2 2 3 7 10 11 12 13 13 12 11 8 6 7 5 5 6 7 7 7 7 8 7 8 7 5 5 7 8 9 10 7 6 7 7 6 9 10 13 12 12 17 16 16 18 23 23 21 23 22 22 25 26 nan 23 23 21 21 nan
nan nan nan nan nan 9 8 7 7 6 6 7 6 7 7 7 7 7 7 7 6 5 4 4 4 3 3 2 2 3 5 7 9 13 14 14 13 12 11 9 8 8 6 7 8 10 10 10 11 11 8 6 5 9 11 10 11 8 6 9 9 10 13 13 12 12 15 19 20 21 17 22 26 23 23 23 25 28 nan 26 24 23 nan nan nan
16 nan nan nan nan 11 11 9 8 7 7 5 7 8 8 7 7 7 9 9 8 7 6 6 5 5 5 4 4 5 5 6 7 9 11 13 14 13 11 10 9 9 8 8 8 10 13 12 12 11 11 7 6 12 12 13 12 13 12 11 10 11 13 15 16 15 16 21 23 23 18 21 26 27 25 25 28 31 31 27 nan nan nan nan nan
18 16 14 nan nan 13 12 11 10 8 8 6 8 9 8 8 7 6 9 10 10 9 8 8 7 6 7 7 6 7 7 7 7 8 10 10 11 13 12 9 6 5 4 5 7 8 12 14 14 14 13 11 10 12 16 15 16 16 15 12 11 13 16 16 16 17 16 23 24 24 23 21 26 27 25 26 31 31 31 nan nan nan nan nan nan
18 16 15 13 13 14 13 13 13 12 10 8 10 10 9 9 8 8 9 10 11 10 9 9 9 8 9 9 8 8 9 9 9 9 10 9 9 10 10 9 8 5 5 6 4 3 10 12 16 16 16 18 12 16 16 17 16 14 15 12 13 13 16 17 19 20 17 22 23 25 24 22 25 27 24 26 31 32 31 nan nan nan nan nan nan
16 15 15 14 14 14 14 15 16 14 13 10 12 11 11 11 9 9 8 11 13 12 11 11 10 10 10 10 10 9 9 10 11 11 11 10 10 10 10 10 10 8 8 9 12 12 11 11 14 17 18 20 17 17 17 19 19 18 17 15 15 17 19 20 20 20 19 21 25 28 26 23 25 28 25 27 30 32 30 nan nan nan nan nan nan
16 17 17 15 13 13 14 15 15 13 13 13 15 14 13 12 12 12 10 10 12 12 12 12 12 13 12 11 12 11 11 11 10 10 11 12 12 11 12 11 10 10 9 9 11 14 13 11 10 13 17 18 18 18 23 23 22 23 23 23 23 22 22 21 20 21 22 21 26 28 27 26 27 29 26 29 32 32 30 nan nan nan nan nan nan
15 15 14 14 15 14 14 14 14 13 14 15 16 16 15 15 16 14 12 11 11 11 11 12 13 13 14 14 13 13 12 13 12 13 11 12 12 13 13 13 12 12 9 12 14 14 12 11 9 8 10 13 16 20 22 19 22 24 27 24 20 24 23 20 21 23 23 23 25 28 28 27 28 30 26 29 31 32 nan nan nan nan nan nan nan
14 14 16 17 17 16 14 12 13 14 14 16 17 16 16 17 20 17 15 13 11 10 10 11 13 15 15 12 13 14 13 13 13 15 13 13 11 12 13 13 13 11 10 13 18 18 16 13 10 9 12 15 17 19 22 21 23 26 26 20 23 28 24 24 22 25 24 25 26 28 28 27 30 31 30 30 32 nan nan nan nan nan nan nan nan
16 18 18 17 16 16 13 12 10 11 13 16 17 16 16 19 20 18 18 16 12 11 11 11 12 15 16 15 11 11 13 12 12 14 13 13 10 11 11 13 12 12 11 17 19 19 22 21 18 18 18 16 18 20 20 19 21 21 22 21 25 27 24 26 28 28 27 25 25 28 28 27 31 32 34 34 32 nan nan nan nan nan nan nan nan
Wind_Direction
91 86 81 77 75 75 76 79 81 82 81 83 77 72 72 72 77 80 82 84 85 83 79 81 84 85 83 88 94 92 87 88 89 90 89 88 87 77 65 68 72 74 78 82 83 85 86 85 84 82 80 78 75 75 73 71 70 68 66 67 68 72 76 81 86 88 88 89 89 85 81 77 71 65 61 60 58 58 57 52 47 39 31 21 15
92 90 83 78 77 79 82 85 88 93 92 91 86 77 76 84 89 91 90 87 83 83 81 81 82 85 85 86 90 92 90 89 87 85 88 85 86 83 64 69 69 71 73 77 81 83 83 82 79 77 75 74 73 71 70 69 67 65 65 66 68 72 77 81 83 84 86 85 83 81 77 70 65 60 59 56 53 55 55 49 43 37 27 18 14
93 91 89 80 80 79 83 92 95 96 94 92 94 88 85 82 84 85 86 85 84 85 79 79 83 83 85 84 87 94 93 94 91 88 86 85 86 90 84 71 74 75 76 78 80 81 79 77 74 74 72 72 71 70 68 67 66 64 65 67 72 74 76 79 79 81 83 82 78 74 70 67 62 55 54 54 49 51 49 43 38 33 24 18 14
92 91 86 79 77 77 84 92 93 95 95 94 94 92 87 87 86 89 92 90 86 80 79 76 78 78 81 81 87 90 91 92 89 86 88 90 90 92 90 87 75 77 78 79 79 78 77 75 74 72 71 69 68 67 66 65 65 66 67 71 72 74 73 73 74 77 78 75 72 66 64 61 58 51 51 54 48 47 43 37 34 30 26 21 22
89 83 81 75 75 77 85 92 97 99 99 98 99 100 100 93 90 85 83 82 79 80 74 75 76 76 77 78 79 85 86 86 85 84 84 87 88 90 89 90 90 77 77 79 77 77 76 74 73 71 70 69 68 67 66 67 67 67 68 70 70 72 73 73 73 73 72 70 64 60 57 58 56 50 52 53 49 44 39 35 35 32 28 26 25
84 83 81 73 70 71 82 94 97 104 109 111 110 105 101 99 97 102 99 95 93 76 69 69 72 76 73 73 74 76 78 79 79 79 81 83 86 88 88 90 88 90 88 78 79 78 74 74 72 71 70 70 69 70 71 68 68 69 67 69 70 71 72 72 71 70 66 64 62 57 58 57 56 52 53 52 48 42 37 37 38 36 29 28 24
84 74 75 67 64 75 87 90 98 105 113 115 116 115 111 110 108 110 105 102 93 91 77 59 62 68 69 70 68 72 75 75 76 78 79 82 83 85 86 85 88 88 85 86 81 78 76 72 70 71 71 71 72 72 72 71 68 67 66 67 69 70 71 70 68 66 63 61 61 60 58 59 57 55 55 53 47 42 41 42 40 38 31 29 25
81 69 62 66 60 74 83 92 96 102 107 115 116 116 115 116 113 104 105 104 100 98 92 80 65 61 68 67 68 64 69 74 74 75 78 79 79 82 82 82 82 82 81 81 81 79 71 71 70 70 71 73 74 73 70 67 66 67 67 68 68 68 68 67 66 64 64 63 61 62 60 59 58 57 57 54 48 45 44 45 42 39 34 27 24
83 75 63 66 68 73 77 82 83 87 99 106 110 110 113 113 114 109 99 99 103 98 99 94 84 72 67 70 69 65 66 70 71 72 72 74 76 77 77 78 80 76 78 76 77 77 75 69 69 69 71 73 73 73 71 69 68 68 69 68 67 67 67 66 65 65 66 66 64 62 61 60 59 59 57 54 50 48 46 43 41 37 31 28 23
87 80 69 71 76 75 79 76 80 87 95 100 102 110 113 108 108 108 105 101 103 101 102 99 90 79 76 73 72 65 63 65 71 71 68 70 73 74 72 71 74 75 74 74 72 73 74 72 71 72 73 73 72 71 71 71 69 69 68 68 68 69 69 67 66 67 67 66 65 63 62 61 60 57 55 52 49 47 45 43 38 35 30 25 21
91 91 78 85 89 88 83 78 78 82 91 101 106 113 119 115 103 104 108 100 93 95 97 100 92 79 75 74 76 67 61 65 66 66 68 68 68 73 76 74 73 78 80 77 76 74 73 77 81 82 79 73 70 70 70 70 70 69 69 69 69 70 69 69 67 66 63 62 62 62 60 60 58 55 53 50 47 45 43 40 36 32 26 22 19
105 115 108 103 103 94 87 84 80 80 85 93 101 111 107 109 104 103 112 112 103 95 94 94 89 78 77 83 82 77 73 58 61 63 68 71 70 72 75 76 74 77 78 80 81 78 76 76 77 77 78 77 73 72 72 70 70 70 69 69 69 68 68 68 67 65 63 62 62 60 58 57 55 53 50 47 45 43 39 36 32 28 24 22 20
128 123 109 109 105 101 95 90 84 79 79 82 89 98 99 98 101 103 106 110 105 101 93 82 nan 90 96 90 91 92 85 81 70 63 65 68 71 68 74 75 74 75 75 79 80 80 78 78 78 78 78 79 78 75 74 73 72 71 69 68 68 67 66 65 65 64 64 62 61 59 56 52 52 51 47 44 42 39 35 33 30 28 25 23 20
132 123 120 117 110 102 95 82 78 73 76 79 83 89 99 103 106 105 102 101 102 98 96 82 85 54 64 86 97 nan 93 94 93 79 59 67 66 70 73 73 72 72 77 78 79 79 79 79 81 81 80 79 80 81 80 77 74 70 68 67 66 65 64 64 64 63 62 61 59 57 55 51 49 47 45 42 40 36 33 30 28 26 26 25 23
132 126 123 123 115 106 93 83 76 71 73 74 77 81 85 92 100 95 99 102 102 102 95 81 68 71 72 nan nan 85 97 103 91 90 85 nan 70 73 74 77 74 73 74 76 79 80 80 79 79 79 79 79 80 79 78 76 73 69 67 66 65 65 64 63 62 62 61 60 58 55 53 52 50 45 42 40 37 33 30 29 28 28 28 27 25
129 129 129 124 115 102 99 92 82 80 72 71 75 77 83 89 90 94 94 100 106 105 97 86 66 39 61 64 nan nan 85 nan 83 91 96 80 nan 66 77 78 79 80 81 78 80 83 82 78 76 78 80 79 79 78 76 75 71 69 67 64 63 63 65 64 62 60 60 60 59 54 52 50 46 43 41 38 34 33 32 32 31 29 28 28 28
126 126 125 114 112 106 98 96 94 87 83 76 74 74 79 82 80 86 88 88 98 100 97 89 81 58 41 58 75 71 67 nan 81 90 100 nan nan nan 71 74 79 79 79 81 84 84 81 79 80 82 81 80 80 78 77 75 73 70 68 66 63 58 59 61 62 61 60 59 57 54 49 44 43 40 40 39 37 36 35 33 32 30 29 29 29
128 123 121 119 109 103 103 96 94 81 74 73 77 82 77 77 79 77 81 85 76 83 87 92 79 68 51 47 34 50 61 73 76 86 nan 101 100 nan nan nan nan nan 82 83 82 83 83 82 81 80 80 80 79 78 76 74 72 69 66 63 62 58 55 55 58 60 59 57 55 51 48 43 38 38 38 40 39 38 36 34 33 31 30 30 30
122 122 123 118 113 107 101 93 87 80 80 76 70 70 72 74 75 73 73 74 74 68 56 70 87 79 61 58 52 48 46 55 nan 98 nan nan 107 nan nan nan nan nan 79 80 80 82 85 85 81 80 80 78 76 75 74 71 67 64 60 58 57 56 54 52 52 53 55 54 52 49 47 43 38 36 35 36 40 41 40 37 35 35 34 33 32
121 120 116 112 108 104 106 94 75 75 74 66 64 69 74 80 69 65 65 60 57 44 53 60 43 76 78 77 91 69 74 81 78 nan nan nan nan nan 109 nan 88 81 80 78 76 76 79 83 82 82 79 76 73 73 71 68 66 64 62 57 54 53 53 51 50 49 49 50 50 49 47 44 40 37 35 36 40 43 43 41 39 36 36 35 34
128 117 116 111 109 106 113 92 71 69 69 68 73 71 64 66 69 63 62 66 61 63 47 59 64 73 81 81 89 87 85 91 102 105 105 108 nan 114 107 nan nan 96 91 85 82 78 74 73 75 76 77 76 74 71 70 69 67 64 61 56 53 52 52 50 48 47 47 48 48 48 46 44 42 41 41 41 41 42 43 43 42 39 37 36 35
134 140 139 129 117 113 95 74 67 61 67 69 74 76 75 73 71 61 62 68 77 64 59 59 58 71 72 63 87 93 99 102 110 nan 121 nan 112 116 109 99 88 92 91 89 84 82 77 75 74 75 77 79 77 75 71 69 67 64 61 56 54 52 51 50 49 49 49 47 46 45 45 44 43 43 43 43 43 43 42 42 41 41 39 37 36
149 153 148 133 121 108 87 73 75 69 69 72 71 69 70 72 73 72 69 66 71 73 84 78 72 78 81 77 72 72 79 93 96 105 115 nan nan 118 110 97 nan nan nan nan 84 84 79 77 76 75 75 78 78 77 74 70 65 61 57 56 54 51 50 50 50 50 48 46 44 42 42 43 43 43 43 42 43 43 43 43 41 40 40 40 38
162 164 156 144 130 118 106 90 75 73 72 71 71 71 73 76 77 73 73 71 76 81 84 83 84 91 94 84 78 73 86 87 90 94 109 110 116 112 110 112 111 94 95 95 87 81 nan 78 76 75 75 76 77 75 74 71 67 61 58 56 52 50 49 49 49 47 44 42 41 41 42 42 43 43 43 42 42 44 44 44 43 43 42 41 40
161 160 157 154 161 130 114 100 96 87 85 79 79 77 78 76 76 77 76 72 75 81 82 85 83 79 78 83 79 78 82 91 100 99 113 120 nan 119 nan nan 105 110 104 96 nan nan 80 81 79 78 76 76 78 77 74 71 65 59 53 52 49 49 49 49 47 45 42 42 42 42 42 44 44 44 43 43 44 45 45 45 45 45 45 44 42
173 156 161 166 171 142 127 113 109 100 95 87 86 85 83 78 78 78 77 79 83 81 81 84 82 78 78 81 86 86 95 99 103 99 103 116 nan nan nan 116 112 108 107 107 99 95 nan nan 87 86 85 82 80 77 74 66 62 61 54 50 52 50 50 49 48 48 47 46 46 45 45 45 41 45 46 46 46 46 46 45 44 45 46 45 44
174 168 181 180 167 158 131 116 105 97 96 97 96 94 87 85 83 80 82 81 79 77 82 81 81 82 80 76 80 89 91 98 102 103 109 105 105 109 nan 113 117 116 110 106 109 95 88 nan 84 79 76 81 82 78 71 63 61 63 59 52 51 51 50 51 52 53 52 50 49 48 47 47 48 49 49 47 47 46 46 47 46 45 43 43 43
182 193 180 190 174 146 130 107 99 93 94 97 102 101 99 90 88 87 86 93 82 78 82 84 83 83 76 80 84 89 97 106 110 112 110 107 111 119 119 117 109 112 118 112 110 104 94 95 103 97 98 91 87 79 78 70 67 66 58 51 51 51 50 50 51 52 51 49 49 49 49 49 50 50 51 48 47 47 45 47 46 45 44 44 43
203 194 195 185 174 152 123 106 94 93 93 100 105 109 107 104 96 92 86 87 79 75 81 76 80 80 82 77 70 80 91 101 115 119 123 125 118 120 117 107 109 116 113 113 107 101 106 100 102 110 114 108 99 98 86 77 76 70 57 51 50 45 47 50 51 49 47 47 48 49 49 49 49 49 50 50 49 47 43 46 45 44 43 42 42
216 208 205 195 180 150 129 106 95 98 96 106 113 113 113 110 105 97 91 86 75 78 78 73 73 76 78 82 79 80 89 96 96 118 127 122 127 121 117 124 119 108 101 108 107 94 97 109 105 114 126 137 119 107 67 67 60 59 53 48 46 40 41 50 55 49 45 46 47 48 48 47 47 47 47 47 46 45 44 43 42 42 42 41 40
218 219 220 208 195 166 142 114 103 92 107 109 116 116 114 110 110 101 100 91 82 78 76 71 74 68 73 75 82 84 90 96 106 118 122 127 124 126 130 138 125 129 108 113 120 114 95 108 117 118 133 131 137 142 135 98 77 69 57 50 48 47 45 48 59 49 43 44 44 45 45 44 45 44 44 43 41 40 39 38 37 37 37 38 38
219 227 228 226 215 190 153 110 97 101 105 113 115 115 112 109 108 102 97 93 88 83 84 77 73 64 64 70 74 78 88 97 105 107 105 114 127 122 131 131 133 132 139 126 100 104 107 101 113 125 127 127 137 140 116 94 78 75 58 51 49 47 34 34 53 48 42 42 42 43 42 42 43 42 41 40 38 37 35 34 33 33 33 32 33
223 229 231 231 232 221 210 108 70 88 102 109 119 120 115 112 112 106 102 92 84 84 84 83 81 71 64 65 72 77 84 86 92 97 106 110 125 132 137 144 133 144 148 130 114 116 131 119 112 119 145 160 154 81 67 70 77 71 62 51 38 18 17 27 37 45 41 40 41 41 39 40 41 40 39 37 35 33 32 30 30 29 29 28 27
231 239 245 237 237 245 250 329 17 56 86 101 113 122 113 114 113 115 104 93 84 80 79 76 75 73 71 70 76 74 75 68 75 79 80 113 120 122 133 131 125 125 129 155 109 131 124 156 155 156 151 193 111 52 32 67 76 75 79 68 30 0 12 21 37 34 36 36 39 38 38 39 39 36 34 32 32 30 28 27 26 26 26 25 22
232 246 257 262 262 268 285 322 345 11 40 76 105 108 108 109 108 111 108 96 82 74 68 67 67 67 68 69 72 74 69 65 76 82 97 69 66 79 101 125 125 127 137 127 157 130 123 133 168 176 188 192 33 101 59 41 62 75 84 72 31 359 7 24 58 50 39 40 39 35 35 33 27 26 26 25 25 25 25 24 23 22 22 20 17
233 239 255 272 277 286 306 322 336 350 358 16 70 90 87 96 104 102 107 101 88 76 64 59 59 55 55 57 63 62 61 48 56 64 93 130 2 19 73 110 117 119 135 149 141 138 156 141 185 231 196 215 156 107 87 63 66 77 77 86 358 3 27 46 84 61 17 31 27 24 12 4 5 7 10 14 21 25 25 22 20 21 22 21 19
223 233 238 248 261 277 292 306 316 334 341 335 344 63 93 95 91 97 99 101 93 81 69 59 51 46 46 43 47 40 31 32 38 18 14 42 138 201 165 169 17 113 141 149 143 177 165 142 179 213 221 223 224 196 226 116 104 104 126 82 29 19 29 50 136 250 347 15 10 343 328 320 329 347 360 11 20 24 25 23 21 20 21 20 16
231 235 246 nan 253 265 276 288 294 305 304 300 315 356 34 74 104 103 104 100 93 82 73 61 48 41 39 37 33 19 12 14 22 7 332 339 284 217 188 213 263 262 250 155 173 188 215 179 200 198 227 219 209 209 254 302 124 148 159 96 13 5 1 19 175 269 315 327 326 321 316 321 329 340 351 0 13 21 25 22 16 14 9 360 357
233 237 245 256 nan 261 268 275 287 291 291 287 293 307 303 284 316 47 93 101 103 99 83 60 46 32 29 29 22 8 7 9 10 2 346 326 308 309 291 221 242 264 277 284 264 234 242 229 226 250 229 239 264 177 241 270 269 278 165 195 349 344 328 336 323 304 303 303 308 313 313 321 327 332 342 357 8 13 12 10 1 344 338 345 348
nan nan 246 256 254 nan 264 269 280 286 298 300 300 304 292 286 288 301 333 58 93 116 121 92 60 41 23 14 8 1 2 0 359 1 336 338 310 303 291 258 242 241 237 249 259 266 249 244 245 225 241 238 240 262 248 245 230 233 295 317 334 340 317 330 344 325 300 290 298 307 311 318 321 326 330 342 354 350 341 346 334 333 341 343 333
nan nan nan 246 256 261 nan 269 274 278 292 302 286 287 284 283 280 292 304 323 346 34 146 165 249 32 26 11 358 350 350 2 5 2 354 345 320 321 310 280 257 246 237 233 237 240 236 243 226 238 231 220 235 231 220 238 246 227 269 281 295 309 302 297 325 317 309 297 302 308 309 310 316 321 323 329 335 326 328 327 336 337 338 328 314
nan nan nan nan 252 268 275 278 276 270 269 264 291 339 320 282 278 276 280 291 295 289 282 253 245 283 356 358 358 13 8 5 1 4 8 11 6 345 330 306 295 267 248 238 233 237 238 240 245 246 232 226 225 252 253 254 259 257 248 267 279 277 281 296 302 301 300 295 288 289 298 305 308 315 315 323 325 321 326 nan 337 340 326 314 nan
nan nan nan nan nan 256 270 275 280 269 262 257 315 314 326 333 288 274 279 278 276 275 274 271 267 278 283 315 319 1 359 352 348 357 0 6 12 18 18 358 328 307 274 251 235 237 239 241 246 251 253 228 214 250 258 255 265 269 277 280 281 272 275 272 270 289 298 294 288 290 294 299 303 307 313 319 317 317 nan 325 329 318 nan nan nan
222 nan nan nan nan 246 252 263 271 271 263 281 308 309 319 327 310 276 267 269 270 270 268 271 266 267 277 282 282 280 288 306 314 320 339 357 7 13 17 13 4 354 330 291 257 237 238 237 240 248 251 249 227 245 249 255 263 270 273 276 276 274 273 277 289 289 300 296 296 298 302 301 299 305 311 317 311 315 314 315 nan nan nan nan nan
225 226 226 nan nan 242 248 257 262 265 258 286 298 307 313 317 321 296 256 261 266 268 269 271 270 269 266 266 267 273 280 323 317 302 303 319 347 4 10 15 19 3 338 323 302 269 244 238 241 239 255 248 241 250 263 262 267 267 277 273 277 276 282 284 288 290 292 300 298 298 298 297 295 302 308 314 310 311 309 nan nan nan nan nan nan
228 227 228 231 236 242 246 250 253 254 257 275 298 303 305 310 310 291 251 257 258 261 267 271 268 266 264 264 267 268 277 286 291 294 290 297 305 313 323 323 321 335 334 314 295 252 236 236 238 238 242 254 248 253 261 261 258 263 269 275 283 280 285 290 289 294 299 294 298 295 293 296 295 297 307 311 309 306 309 nan nan nan nan nan nan
229 228 228 228 231 238 243 245 245 248 250 280 287 299 302 305 308 289 255 250 251 252 255 260 267 268 263 262 263 267 269 276 284 296 294 294 292 301 308 314 317 314 299 285 280 277 266 242 233 234 233 242 243 248 252 260 267 275 283 288 290 288 285 280 281 291 297 298 297 290 296 297 293 293 306 308 308 301 306 nan nan nan nan nan nan
220 221 220 221 225 231 240 246 246 244 246 274 281 290 298 299 303 268 256 253 252 253 253 253 258 262 265 265 260 260 262 267 283 312 310 296 292 300 304 306 305 302 292 289 295 288 284 273 250 238 235 233 235 240 248 255 264 272 276 277 277 279 281 281 288 290 295 299 295 292 292 291 291 292 300 302 302 296 298 nan nan nan nan nan nan
217 217 216 217 216 222 231 240 246 241 239 259 278 285 290 297 279 261 259 252 248 251 255 259 260 261 264 265 262 258 258 262 279 299 313 308 287 293 296 299 301 296 287 272 279 289 287 286 285 265 241 232 222 223 240 260 269 275 276 280 287 287 285 284 286 290 293 293 290 289 291 288 287 287 291 296 300 298 nan nan nan nan nan nan nan
214 214 216 213 213 216 223 232 242 242 238 252 274 279 286 288 280 269 261 257 252 249 248 255 259 260 262 278 274 262 258 258 278 296 310 301 288 286 285 290 295 296 284 272 267 271 288 292 287 271 249 237 230 225 235 257 275 277 278 286 283 286 291 291 292 292 288 286 288 287 287 289 286 285 287 293 296 nan nan nan nan nan nan nan nan
219 221 224 221 218 217 218 226 244 251 241 249 271 279 285 283 278 264 263 257 254 249 247 245 253 257 258 261 280 274 262 261 276 287 305 303 291 288 287 286 294 292 286 274 274 269 266 264 260 259 255 258 254 251 250 262 279 284 282 284 282 287 291 290 288 283 283 287 292 292 289 292 288 287 288 286 291 nan nan nan nan nan nan nan nan